Vertical_Velocity
-11 4 -2 2 -1 -3 -2 -2 -0 -1 0 -1 -1 6 1 -4 -3 -4 -6 -4 0 4 2 -1 5 2 -0 -4 5 -2 -0 -1 -2 1 0 -1 -1 -1 -3 -2 -1 -1 -4
-13 0 -3 1 -2 -3 -1 -5 -4 -1 -2 -1 1 1 1 9 1 -7 -1 -0 1 2 5 1 0 7 6 5 2 4 1 1 -3 0 2 -1 -1 -1 -3 -1 -0 -3 -1
-14 3 1 0 -1 -4 0 -2 -5 -1 -3 -0 -2 -3 -1 -1 2 -0 -4 2 0 -2 -1 2 2 1 3 3 2 -1 3 6 -1 -0 3 -1 2 -1 -4 1 -3 -0 -1
1 1 -0 1 -1 -5 1 -2 -5 -2 -0 1 1 -1 -1 -6 2 6 2 5 3 -1 0 -1 1 2 3 4 3 5 3 12 4 -0 -1 -1 0 -0 0 -3 -1 1 -1
4 -7 1 1 -1 -3 -1 -0 -3 -1 1 -2 -1 3 -10 -7 16 9 15 3 5 -2 1 -0 -0 2 5 1 1 6 3 3 5 -2 -2 -1 0 -2 1 -1 -2 2 6
2 -9 -0 1 -1 -3 -2 2 -3 -0 1 -0 -0 -3 0 -14 -14 10 2 18 5 0 1 4 5 4 3 4 10 7 3 2 2 -1 -1 -2 -3 -4 -2 -2 -3 5 10
0 0 2 2 -1 -2 -2 -1 -2 -2 -1 -1 -1 2 -3 -2 -7 -7 -7 4 1 2 6 4 5 2 5 7 4 8 0 -2 -4 -5 -3 -2 0 -2 -1 -1 -3 -4 -3
-1 -1 1 2 -0 -1 0 -1 0 -2 -1 -1 -2 2 0 -2 -3 -0 -4 -8 8 4 5 5 -2 3 -1 5 3 -6 -2 6 2 2 1 -1 -3 -2 -4 -1 -4 0 -1
-0 -1 -0 2 0 -1 0 0 -1 -2 -1 -2 0 3 0 -1 -5 -5 -1 -4 -3 1 -3 -3 -2 -1 0 -3 -3 1 -2 5 2 -1 -3 -4 1 -1 0 -2 -3 -5 3
-0 -1 -2 1 3 0 -0 1 0 -3 1 -1 -2 -1 1 0 3 -1 1 -2 0 1 0 -2 -2 0 -3 -3 -0 0 -1 2 3 -1 3 -1 0 -0 -1 -2 -1 -1 -10
-6 0 -3 0 1 2 -2 1 -0 1 -3 1 -0 -1 1 -1 1 1 -1 -3 -3 -3 -1 -1 0 3 4 3 4 2 0 2 0 0 -0 6 1 1 2 -1 -0 -3 -4
-3 1 -2 1 -0 1 -2 0 1 0 1 -3 -1 -0 -0 -2 -3 0 2 -1 -1 -2 -4 1 2 1 2 -1 -3 -2 3 3 4 -1 1 6 -4 0 -1 3 2 -2 -2
1 -3 -0 0 -0 -0 -1 -2 0 -1 1 3 -1 -2 -3 -3 -2 -1 -0 0 1 1 -0 -0 -2 -1 -0 1 -0 -0 3 6 4 2 -5 -1 1 7 2 -0 -1 -1 17
-1 1 1 0 0 1 -1 -0 -2 -1 1 -2 0 0 -1 1 2 -1 0 1 -0 -1 -2 2 3 3 2 5 5 6 0 -2 1 -1 -1 -1 -1 2 4 2 1 -4 22
12 -2 1 2 1 -1 1 -1 2 -1 -1 -1 1 1 1 -2 -1 1 -1 1 1 1 0 2 -1 0 0 9 -0 -1 -1 0 2 -0 1 0 3 2 3 6 17 -0 -1
-4 7 14 -0 -1 2 3 -0 1 -1 -3 -1 -1 -0 0 1 -1 -1 -0 1 2 1 -0 3 2 -0 -3 1 0 1 2 0 1 1 -0 -2 -0 1 2 3 1 0 13
3 8 -2 12 -10 0 3 -1 -2 2 -1 -0 0 -1 0 1 0 1 -0 -0 -0 1 -1 2 2 1 2 4 1 2 1 2 3 0 -1 -1 -1 -1 -1 1 1 1 3
7 -6 -4 -0 30 -3 -0 0 2 -1 0 1 -0 -3 -2 -1 3 1 3 1 2 2 1 2 1 0 1 3 2 0 -2 0 1 2 1 1 -1 -1 0 -2 -2 -1 -2
-3 2 1 1 -10 7 4 -2 -0 3 -1 3 1 -0 -2 2 0 1 1 -0 1 2 2 0 1 1 0 2 1 1 -0 1 0 -0 1 -0 -1 -1 -2 1 -1 2 -2
-7 -16 1 -2 0 -3 -3 -3 -6 0 4 4 -1 1 2 -3 0 1 -1 -1 0 1 1 -0 -3 -1 -1 2 1 -0 -1 -1 4 -0 -1 2 1 -0 0 -1 2 -1 0
-4 -10 6 5 2 1 -3 -1 0 7 10 0 0 -2 -2 3 2 0 -1 -1 -2 -2 -0 -1 0 2 1 2 1 -0 -1 1 -2 -1 -3 -2 -0 -1 -1 0 0 -0 1
-1 -6 2 3 4 3 -5 -5 -3 3 -1 4 1 -1 8 15 6 -3 -0 0 -2 -2 -2 0 0 -0 -0 1 1 1 -1 -3 -3 -2 -1 -4 0 -1 0 1 -1 -2 -1
-2 -4 -0 2 2 -0 -2 -1 -4 -2 -1 -0 5 -0 -0 -2 -2 5 0 -3 1 -1 -2 0 -1 -2 -1 -2 -2 -1 -2 -1 -2 0 2 2 -3 -2 -2 -0 -1 -3 -1
-1 -3 -3 -1 -1 3 -0 -0 -2 -2 1 5 2 -1 -1 1 -2 -3 14 -2 -0 -1 0 -1 -3 19 -1 -4 -2 -3 -1 -0 -0 -3 5 0 -2 -2 -0 -2 -4 -6 -6
1 1 1 1 4 5 2 2 1 -2 3 4 3 2 -1 -3 10 -2 2 -2 1 2 -1 6 14 1 -1 -0 1 0 -0 -0 -1 -2 -4 -2 -2 -4 -3 -3 -4 -3 -2
-6 -4 -0 3 2 -0 5 2 3 3 2 2 2 1 0 -1 6 3 8 5 6 10 17 8 2 0 0 5 3 -0 1 -4 -4 -1 -1 1 -1 -1 -0 -1 -0 1 1
Height
5718 5719 5717 5716 5713 5711 5709 5705 5703 5701 5698 5698 5702 5704 5707 5708 5707 5709 5716 5722 5726 5731 5736 5740 5747 5750 5756 5756 5762 5764 5767 5770 5771 5773 5772 5773 5774 5774 5774 5772 5773 5772 5772
5713 5714 5712 5712 5711 5707 5706 5703 5700 5698 5697 5696 5697 5697 5697 5699 5697 5700 5710 5717 5722 5727 5732 5738 5742 5745 5752 5755 5756 5760 5761 5764 5765 5766 5768 5767 5769 5767 5768 5767 5768 5767 5770
5708 5710 5709 5709 5707 5704 5703 5702 5699 5697 5695 5694 5695 5693 5687 5684 5685 5691 5699 5709 5716 5722 5726 5731 5736 5739 5744 5749 5751 5754 5755 5757 5758 5759 5763 5762 5763 5761 5762 5762 5763 5765 5767
5706 5705 5705 5705 5704 5702 5700 5700 5697 5695 5693 5692 5692 5693 5687 5681 5682 5686 5693 5702 5710 5717 5722 5726 5730 5736 5738 5742 5745 5747 5748 5751 5751 5753 5754 5755 5755 5755 5757 5757 5759 5761 5762
5702 5699 5700 5701 5701 5700 5697 5696 5695 5693 5691 5689 5686 5687 5685 5682 5682 5684 5690 5698 5706 5712 5718 5722 5726 5730 5733 5735 5737 5738 5742 5745 5746 5747 5748 5748 5748 5749 5752 5752 5753 5754 5757
5696 5694 5695 5697 5698 5697 5696 5693 5693 5692 5691 5688 5685 5682 5682 5685 5684 5687 5691 5696 5703 5708 5713 5717 5721 5723 5726 5728 5730 5732 5735 5738 5740 5740 5741 5742 5743 5743 5746 5746 5748 5749 5751
5691 5691 5691 5692 5694 5693 5693 5691 5690 5690 5690 5688 5686 5684 5681 5682 5686 5688 5691 5693 5697 5703 5707 5711 5714 5718 5720 5721 5724 5727 5729 5732 5734 5734 5735 5735 5735 5737 5739 5740 5739 5738 5739
5685 5686 5686 5687 5689 5690 5690 5689 5688 5688 5688 5687 5687 5685 5683 5682 5683 5687 5691 5693 5696 5700 5702 5706 5710 5712 5714 5716 5719 5720 5724 5728 5728 5729 5729 5729 5728 5730 5731 5733 5731 5731 5730
5679 5680 5681 5682 5685 5686 5686 5687 5686 5686 5686 5686 5686 5686 5684 5684 5685 5688 5690 5693 5695 5697 5699 5702 5704 5706 5708 5711 5715 5718 5720 5721 5722 5722 5722 5723 5724 5723 5724 5724 5723 5721 5720
5672 5675 5675 5677 5680 5682 5683 5684 5683 5683 5683 5684 5684 5684 5684 5684 5687 5688 5690 5692 5693 5695 5698 5700 5702 5704 5706 5709 5711 5714 5714 5715 5716 5716 5717 5717 5718 5717 5716 5716 5714 5712 5709
5664 5668 5669 5673 5674 5678 5679 5680 5681 5680 5681 5681 5682 5683 5683 5683 5684 5686 5688 5690 5691 5693 5695 5698 5700 5701 5704 5705 5706 5707 5707 5709 5710 5711 5711 5711 5710 5708 5708 5706 5704 5702 5700
5660 5662 5664 5668 5670 5673 5675 5676 5678 5678 5678 5678 5678 5679 5680 5682 5683 5684 5685 5687 5688 5690 5691 5693 5694 5697 5699 5699 5700 5700 5702 5704 5704 5704 5702 5702 5701 5699 5698 5696 5694 5692 5689
5654 5656 5658 5661 5665 5668 5670 5671 5673 5674 5674 5675 5675 5676 5675 5677 5678 5681 5684 5685 5686 5688 5688 5689 5690 5691 5693 5695 5696 5697 5697 5698 5696 5694 5693 5692 5691 5691 5689 5686 5683 5680 5676
5646 5650 5652 5655 5659 5662 5664 5666 5668 5670 5670 5671 5671 5671 5671 5672 5674 5676 5678 5680 5681 5682 5683 5684 5685 5686 5687 5688 5690 5690 5690 5688 5687 5687 5685 5684 5682 5680 5678 5675 5672 5669 5663
5642 5643 5647 5649 5653 5655 5658 5660 5663 5665 5666 5667 5667 5668 5668 5668 5670 5671 5672 5673 5674 5675 5676 5677 5679 5680 5681 5684 5684 5682 5681 5681 5680 5678 5676 5673 5671 5669 5666 5664 5662 5654 5649
5633 5636 5640 5643 5646 5649 5652 5654 5657 5660 5661 5662 5662 5663 5664 5664 5665 5665 5666 5668 5670 5671 5672 5674 5674 5674 5674 5675 5674 5673 5672 5671 5669 5667 5664 5661 5658 5654 5652 5648 5644 5639 5636
5627 5632 5633 5635 5638 5642 5646 5649 5651 5654 5656 5657 5658 5659 5659 5659 5660 5660 5661 5662 5663 5664 5664 5665 5665 5665 5665 5666 5665 5663 5661 5659 5657 5655 5652 5649 5645 5642 5637 5633 5629 5624 5619
5620 5623 5626 5627 5632 5632 5640 5642 5645 5647 5649 5651 5653 5654 5655 5655 5655 5656 5656 5655 5657 5657 5657 5657 5656 5655 5655 5655 5655 5654 5651 5648 5645 5643 5639 5636 5632 5628 5623 5618 5612 5607 5600
5609 5612 5617 5622 5627 5629 5634 5636 5637 5639 5642 5644 5645 5647 5649 5650 5650 5651 5650 5650 5649 5649 5649 5648 5648 5648 5648 5647 5645 5643 5640 5637 5634 5631 5628 5623 5618 5613 5608 5602 5595 5589 5582
5600 5605 5608 5612 5617 5620 5623 5627 5628 5631 5635 5637 5639 5640 5641 5642 5642 5643 5644 5644 5643 5642 5641 5641 5641 5640 5639 5637 5635 5632 5629 5625 5623 5618 5613 5608 5603 5597 5590 5584 5578 5571 5564
5591 5595 5601 5606 5609 5613 5614 5618 5621 5624 5625 5628 5630 5631 5632 5634 5634 5634 5635 5635 5635 5635 5635 5634 5632 5631 5629 5627 5624 5620 5617 5614 5610 5605 5600 5595 5588 5581 5574 5567 5560 5553 5546
5583 5587 5592 5595 5599 5603 5606 5608 5610 5613 5615 5618 5621 5622 5623 5625 5624 5626 5626 5626 5625 5625 5625 5624 5623 5621 5619 5616 5612 5609 5605 5601 5597 5591 5585 5578 5572 5564 5558 5550 5542 5535 5527
5573 5577 5581 5585 5589 5592 5595 5598 5601 5604 5607 5609 5611 5612 5613 5613 5615 5616 5615 5615 5615 5613 5613 5613 5611 5609 5606 5603 5599 5595 5591 5586 5581 5576 5569 5561 5554 5547 5541 5533 5525 5517 5508
5562 5566 5570 5573 5576 5581 5584 5588 5591 5594 5596 5599 5601 5602 5603 5604 5604 5603 5603 5603 5603 5602 5602 5600 5598 5595 5592 5590 5585 5581 5575 5570 5565 5559 5553 5544 5536 5529 5521 5513 5504 5496 5487
5552 5556 5560 5563 5567 5571 5574 5577 5581 5583 5585 5588 5590 5591 5591 5592 5592 5592 5592 5592 5591 5590 5588 5588 5585 5581 5578 5574 5570 5565 5558 5552 5546 5540 5534 5527 5518 5509 5501 5492 5483 5474 5463
5544 5547 5549 5553 5556 5560 5563 5567 5569 5571 5573 5575 5577 5579 5578 5580 5582 5581 5580 5581 5580 5578 5574 5571 5569 5566 5562 5558 5552 5546 5541 5534 5529 5524 5516 5508 5500 5491 5482 5472 5462 5450 5438